Location: ?????oe
(44.4874°N, 135.7046°E)
Time: 16:37:26
(UTC+00:00)

Meteor 2-3 Rocket - Pass Details

Date: 13 December 2025
Orbit: 842 x 882 km, 81.2° (Epoch: 22 January)

Event Time Altitude Azimuth Distance (km) Brightness Sun altitude
Rises 19:39:29 0° 190° (S) 3,449 6.8 -28.6°
Reaches altitude 10° 19:41:55 10° 192° (SSW) 2,510 6.1 -28.2°
Enters shadow 19:42:13 12° 192° (SSW) 2,399 6.0 -28.1°
Exits shadow 19:46:50 67° 206° (SSW) 937 3.7 -27.3°
Maximum altitude 19:47:38 83° 279° (W) 875 3.6 -27.2°
Drops below altitude 10° 19:53:20 10° 9° (N) 2,500 6.2 -26.2°
Sets 19:55:45 0° 10° (N) 3,435 6.9 -25.7°
